Weather reports worldwide

Advertisment
Bastia, France (7790): temperature & dewpoint: 07.07.2020 06:00:00 - 13.07.2020 06:00:00 (CEST)Bastia, France (7790): temperature 5cm: 07.07.2020 06:00:00 - 13.07.2020 06:00:00 (CEST)Bastia, France (7790): temperature -20cm & temperature -100cm: 07.07.2020 06:00:00 - 13.07.2020 06:00:00 (CEST)Bastia, France (7790): wind speed & gusts: 07.07.2020 06:00:00 - 13.07.2020 06:00:00 (CEST)Bastia, France (7790): wind direction: 07.07.2020 06:00:00 - 13.07.2020 06:00:00 (CEST)Bastia, France (7790): reduced air pressure: 07.07.2020 06:00:00 - 13.07.2020 06:00:00 (CEST)Bastia, France (7790): visibility: 07.07.2020 06:00:00 - 13.07.2020 06:00:00 (CEST)Bastia, France (7790): sunshine duration: 07.07.2020 06:00:00 - 13.07.2020 06:00:00 (CEST)Bastia, France (7790): precipitation: 07.07.2020 06:00:00 - 13.07.2020 06:00:00 (CEST)
Date & Time tt [°C] td [°C] tt 5cm [°C] tt -20cm [°C] tt -100cm [°C] ff [km/h] ff [kn] fx [km/h] fx [kn] dd ppp [hPa] vv [km] sd [min] rr [mm]
13.07.2020 06:00:00 22,7 17,4 18,9 27,4 23,1 10 6 18 10 WNW 1017,4 33 0 0,0
13.07.2020 05:00:00 23,2 16,7 19,8 27,4 23,1 13 7 23 12 NNW 1017,1 25 0 0,0
13.07.2020 04:00:00 23,7 17,2 20,4 27,4 23,1 6 4 15 8 W 1017,3 20 0 0,0
13.07.2020 03:00:00 24,0 17,5 20,1 27,5 23,1 9 5 16 9 WNW 1017,3 15 0 0,0
13.07.2020 02:00:00 24,0 18,0 20,0 27,5 23,1 10 5 14 7 WNW 1017,5 14 0 0,0
13.07.2020 01:00:00 22,5 18,3 20,2 27,5 23,1 6 3 19 11 WSW 1017,4 52 0 0,0
13.07.2020 00:00:00 22,4 18,4 20,4 27,4 23,0 6 3 10 5 SW 1017,7 43 0 0,0
12.07.2020 23:00:00 24,1 18,7 20,9 27,4 23,1 5 3 10 5 WSW 1017,4 45 0 0,0
12.07.2020 22:00:00 24,6 18,5 21,8 27,3 23,1 6 3 11 6 WSW 1016,8 46 0 0,0
12.07.2020 21:00:00 26,0 19,6 23,4 27,1 23,1 5 3 14 8 WSW 1016,5 59 0 0,0
12.07.2020 20:00:00 26,9 18,5 27,9 27,0 23,0 11 6 21 12 NW 1016,4 54 17 0,0
12.07.2020 19:00:00 27,7 20,8 30,5 26,9 23,0 16 9 23 12 N 1016,3 37 35 0,0
12.07.2020 18:00:00 28,4 20,2 32,1 26,7 23,0 16 9 24 13 N 1016,2 45 24 0,0
12.07.2020 17:00:00 29,9 20,5 42,0 26,7 23,0 14 8 26 14 N 1016,5 23 60 0,0
12.07.2020 16:00:00 29,9 18,7 45,1 26,6 23,0 16 8 27 14 NNE 1016,8 23 60 0,0
12.07.2020 15:00:00 29,4 20,0 46,2 26,6 23,0 16 8 26 14 NNE 1016,8 23 60 0,0
12.07.2020 14:00:00 29,6 19,9 47,8 26,6 23,0 16 8 36 20 NNE 1017,0 20 60 0,0
12.07.2020 13:00:00 29,3 20,5 45,6 26,6 23,0 18 10 41 22 NNE 1017,1 31 60 0,0
12.07.2020 12:00:00 29,6 19,3 42,1 26,7 23,0 16 9 42 23 NNE 1016,9 37 60 0,0
12.07.2020 11:00:00 29,2 17,7 37,4 26,7 23,0 9 5 19 10 N 1016,7 18 60 0,0
12.07.2020 10:00:00 27,6 20,2 29,6 26,8 23,0 11 6 20 11 NE 1016,5 48 52 0,0
12.07.2020 09:00:00 26,9 20,7 23,9 26,9 23,0 6 4 26 14 NNE 1016,4 37 31 0,0
12.07.2020 08:00:00 24,4 21,3 20,2 27,0 23,0 4 2 9 5 W 1016,2 31 22 0,0
12.07.2020 07:00:00 21,0 18,9 18,5 27,1 23,0 7 4 11 6 WSW 1015,8 29 0 0,0
12.07.2020 06:00:00 20,2 18,7 18,1 27,1 23,0 7 4 11 6 SW 1015,4 31 0 0,0
12.07.2020 05:00:00 20,3 18,4 18,0 27,2 22,9 7 4 9 5 WSW 1014,9 33 0 0,0
12.07.2020 04:00:00 20,5 19,0 18,4 27,2 22,9 5 3 9 5 SW 1014,8 33 0 0,0
12.07.2020 03:00:00 21,2 19,3 18,8 27,2 22,9 7 4 11 6 SW 1014,8 32 0 0,0
12.07.2020 02:00:00 21,3 19,8 19,3 27,2 22,9 6 4 9 5 SW 1014,9 29 0 0,0
12.07.2020 01:00:00 21,8 20,3 19,8 27,2 22,9 7 4 8 4 SW 1015,3 29 0 0,0
12.07.2020 00:00:00 22,9 21,0 20,4 27,2 22,9 5 3 7 4 SW 1015,3 31 0 0,0
11.07.2020 23:00:00 23,2 21,5 21,3 27,1 22,9 3 2 9 5 SW 1015,4 29 0 0,0
11.07.2020 22:00:00 24,1 21,4 21,9 27,0 22,9 4 2 9 5 NE 1015,0 40 0 0,0
11.07.2020 21:00:00 24,7 21,6 24,1 26,8 22,9 4 2 16 9 ESE 1014,1 31 22 0,0
11.07.2020 20:00:00 26,6 22,0 28,3 26,7 22,9 7 4 16 9 ESE 1013,8 35 60 0,0
11.07.2020 19:00:00 27,6 21,9 32,2 26,6 22,9 11 6 22 12 ESE 1013,6 24 60 0,0
11.07.2020 18:00:00 28,3 21,3 36,2 26,5 22,9 15 8 25 13 SE 1013,8 20 60 0,0
11.07.2020 17:00:00 28,4 21,4 40,1 26,4 22,9 14 8 26 14 ESE 1014,1 19 60 0,0
11.07.2020 16:00:00 29,1 20,8 44,7 26,3 22,9 11 6 26 14 E 1014,2 17 58 0,0
11.07.2020 15:00:00 29,0 21,2 45,8 26,3 22,9 13 7 24 13 ESE 1014,6 20 60 0,0
11.07.2020 14:00:00 28,9 21,7 47,3 26,3 22,9 15 8 24 13 E 1014,8 22 60 0,0
11.07.2020 13:00:00 28,7 20,7 44,7 26,3 22,9 11 6 25 14 E 1015,0 26 60 0,0
11.07.2020 12:00:00 28,7 21,2 42,1 26,4 22,9 14 8 26 14 ESE 1014,9 20 60 0,0
11.07.2020 11:00:00 28,0 21,3 36,7 26,4 22,9 12 6 20 11 ESE 1014,9 43 60 0,0
11.07.2020 10:00:00 27,6 19,9 32,2 26,5 22,8 7 4 20 11 ESE 1014,7 58 60 0,0
11.07.2020 09:00:00 26,6 19,2 26,1 26,5 22,8 6 4 11 6 SSE 1014,7 60 60 0,0
11.07.2020 08:00:00 24,1 19,0 20,7 26,6 22,9 6 3 10 5 SSW 1014,7 60 60 0,0
11.07.2020 07:00:00 21,3 16,9 18,1 26,7 22,8 6 3 9 5 SW 1014,7 56 41 -
11.07.2020 06:00:00 20,2 16,4 18,0 26,7 22,8 6 4 11 6 SW 1014,4 58 0 -
11.07.2020 05:00:00 20,9 16,7 18,5 26,8 22,8 8 5 13 7 SW 1014,4 60 0 -
11.07.2020 04:00:00 21,4 16,6 19,6 26,8 22,8 8 4 19 10 SSW 1014,2 60 0 0,0
11.07.2020 03:00:00 22,3 16,8 20,0 26,8 22,8 11 6 19 10 SSW 1014,6 60 0 0,0
11.07.2020 02:00:00 23,2 16,5 19,6 26,9 22,8 11 6 29 16 SW 1014,9 60 0 -
11.07.2020 01:00:00 22,5 16,5 19,4 26,8 22,8 8 4 24 13 SW 1015,3 58 0 0,0
11.07.2020 00:00:00 22,1 19,5 20,0 26,8 22,8 3 2 10 5 SW 1015,7 46 0 0,0
10.07.2020 23:00:00 22,2 19,6 20,5 26,7 22,8 8 5 11 6 SSW 1015,0 49 0 -
10.07.2020 22:00:00 23,6 20,3 21,1 26,6 22,8 2 1 5 3 WSW 1014,9 50 0 0,0
10.07.2020 21:00:00 24,5 20,4 23,6 26,5 22,8 4 2 9 5 SE 1014,6 20 31 0,0
10.07.2020 20:00:00 26,1 19,5 27,7 26,4 22,8 7 4 14 8 E 1014,6 19 51 0,0
10.07.2020 19:00:00 26,9 17,7 30,8 26,3 22,8 9 5 17 9 ESE 1014,5 56 51 0,0
10.07.2020 18:00:00 28,3 16,9 36,6 26,2 22,8 10 5 17 9 ESE 1014,7 60 57 0,0
10.07.2020 17:00:00 27,8 16,7 36,2 26,0 22,7 9 5 22 12 E 1015,1 25 47 0,0
10.07.2020 16:00:00 29,1 18,5 42,3 26,0 22,7 11 6 23 13 ENE 1015,6 25 60 0,0
10.07.2020 15:00:00 28,1 19,6 44,9 25,9 22,7 13 7 23 13 ENE 1015,8 24 60 0,0
10.07.2020 14:00:00 28,5 20,0 46,0 26,0 22,7 13 7 24 13 ENE 1016,0 25 60 0,0
10.07.2020 13:00:00 28,2 20,2 37,6 26,0 22,8 10 5 27 14 ENE 1016,3 26 43 0,0
10.07.2020 12:00:00 27,7 20,3 41,1 26,1 22,7 11 6 22 12 ENE 1016,4 26 52 0,0
10.07.2020 11:00:00 27,6 19,9 36,8 26,1 22,7 10 6 18 10 E 1016,4 20 60 0,0
10.07.2020 10:00:00 27,4 19,5 30,9 26,2 22,7 9 5 17 9 ESE 1016,3 28 60 0,0
10.07.2020 09:00:00 26,2 18,8 23,8 26,3 22,7 5 3 10 6 SSE 1016,3 30 60 0,0
10.07.2020 08:00:00 23,7 17,0 18,7 26,4 22,7 5 3 10 6 SW 1015,9 31 60 0,0
10.07.2020 07:00:00 21,1 15,4 15,8 26,5 22,7 6 3 13 7 SW 1015,8 42 42 0,0
10.07.2020 06:00:00 19,4 14,6 15,7 26,6 22,7 8 4 11 6 SW 1015,7 58 0 -
10.07.2020 05:00:00 19,8 14,4 16,2 26,6 22,7 8 5 11 6 SW 1015,8 60 0 -
10.07.2020 04:00:00 19,9 14,5 16,5 26,6 22,7 7 4 11 6 SW 1015,9 60 0 0,0
10.07.2020 03:00:00 20,7 15,0 16,5 26,7 22,7 7 4 9 5 WSW 1016,2 60 0 0,0
10.07.2020 02:00:00 20,6 14,5 17,9 26,7 22,7 5 3 23 12 SW 1016,3 60 0 0,0
10.07.2020 01:00:00 22,4 15,3 17,7 26,7 22,7 14 8 22 12 SSW 1016,4 60 0 0,0
10.07.2020 00:00:00 21,0 16,2 18,2 26,6 22,7 5 3 11 6 SW 1016,6 60 0 0,0
09.07.2020 23:00:00 21,4 17,0 18,3 26,6 22,7 6 3 8 4 SW 1016,7 59 0 0,0
09.07.2020 22:00:00 22,2 17,6 19,5 26,5 22,7 6 3 9 5 SW 1016,6 54 0 0,0
09.07.2020 21:00:00 24,2 17,9 21,8 26,4 22,7 4 2 8 4 SSE 1016,4 60 23 0,0
09.07.2020 20:00:00 26,9 15,9 26,9 26,2 22,6 6 3 12 6 ESE 1016,4 16 60 0,0
09.07.2020 19:00:00 28,0 15,6 31,4 26,1 22,7 9 5 16 9 E 1016,4 53 60 0,0
09.07.2020 18:00:00 28,4 14,2 35,2 25,9 22,6 11 6 23 12 E 1016,7 41 60 0,0
09.07.2020 17:00:00 29,0 14,0 40,1 25,9 22,6 11 6 26 14 ENE 1017,1 35 60 0,0
09.07.2020 16:00:00 28,8 15,7 42,6 25,8 22,6 12 6 25 14 ENE 1017,3 29 60 0,0
09.07.2020 15:00:00 29,3 16,5 46,0 25,8 22,6 11 6 23 12 E 1017,6 30 60 0,0
09.07.2020 14:00:00 30,0 16,8 47,1 25,8 22,6 11 6 22 12 E 1017,7 30 60 0,0
09.07.2020 13:00:00 29,0 15,2 45,2 25,8 22,6 13 7 24 13 E 1017,6 33 60 0,0
09.07.2020 12:00:00 28,8 14,6 42,8 25,9 22,6 11 6 21 11 E 1017,6 20 60 0,0
09.07.2020 11:00:00 28,7 14,1 36,8 26,0 22,6 9 5 20 11 E 1017,6 52 60 0,0
09.07.2020 10:00:00 27,8 14,8 30,4 26,1 22,6 7 4 12 7 ESE 1017,3 60 60 0,0
09.07.2020 09:00:00 26,7 15,1 22,4 26,2 22,6 4 2 10 5 S 1017,2 60 60 0,0
09.07.2020 08:00:00 23,9 12,8 17,5 26,3 22,6 9 5 14 7 SW 1017,2 57 60 0,0
09.07.2020 07:00:00 20,7 13,2 14,9 26,4 22,6 7 4 11 6 SSW 1017,0 40 43 -
09.07.2020 06:00:00 19,1 12,6 14,4 26,4 22,6 9 5 11 6 SW 1016,8 60 0 -
09.07.2020 05:00:00 19,2 12,0 14,7 26,5 22,6 3 1 9 5 SSW 1016,6 60 0 -
09.07.2020 04:00:00 19,6 12,4 14,8 26,6 22,6 8 4 11 6 SW 1016,5 60 0 0,0
09.07.2020 03:00:00 19,8 13,0 15,2 26,6 22,5 5 3 9 5 SW 1016,8 60 0 0,0
09.07.2020 02:00:00 20,2 12,9 15,5 26,6 22,5 6 4 9 5 SW 1016,7 60 0 0,0
09.07.2020 01:00:00 19,9 14,5 16,0 26,6 22,5 5 3 9 5 W 1016,8 60 0 0,0
09.07.2020 00:00:00 19,9 14,3 16,7 26,6 22,6 6 3 11 6 SSW 1016,6 60 0 -
08.07.2020 23:00:00 19,8 15,4 17,0 26,5 22,5 8 4 10 5 S 1016,3 60 0 0,0
08.07.2020 22:00:00 21,4 17,0 17,7 26,4 22,5 6 4 8 4 SSW 1016,3 51 0 0,0
08.07.2020 21:00:00 23,2 15,8 20,4 26,3 22,5 5 3 17 9 ENE 1015,8 20 24 0,0
08.07.2020 20:00:00 26,1 15,5 25,9 26,2 22,5 8 5 22 12 NNE 1015,6 59 60 0,0
08.07.2020 19:00:00 27,4 14,4 30,7 26,1 22,5 8 5 16 9 NNE 1015,7 60 60 0,0
08.07.2020 18:00:00 28,1 13,2 34,4 25,9 22,5 11 6 35 19 NNE 1015,8 56 60 0,0
08.07.2020 17:00:00 28,9 12,7 40,4 25,9 22,5 11 6 20 11 NE 1016,2 37 60 0,0
08.07.2020 16:00:00 29,1 12,5 42,8 25,8 22,5 10 5 36 19 NE 1016,2 35 60 0,0
08.07.2020 15:00:00 28,4 13,5 45,0 25,8 22,5 13 7 23 12 NNE 1016,2 42 60 0,0
08.07.2020 14:00:00 28,8 11,4 45,1 25,7 22,5 13 7 35 19 NNE 1016,3 18 60 0,0
08.07.2020 13:00:00 28,2 12,9 43,0 25,8 22,5 12 7 23 12 N 1016,6 31 60 0,0
08.07.2020 12:00:00 27,5 15,5 40,2 25,9 22,5 13 7 22 12 N 1016,6 20 60 0,0
08.07.2020 11:00:00 27,3 16,0 35,3 25,9 22,4 15 8 26 14 NNE 1016,2 34 60 0,0
08.07.2020 10:00:00 26,8 15,2 30,0 26,0 22,4 15 8 22 12 N 1015,9 46 60 0,0
08.07.2020 09:00:00 25,8 16,6 23,7 26,1 22,5 13 7 20 11 N 1015,8 56 60 0,0
08.07.2020 08:00:00 23,7 17,9 19,1 26,2 22,4 4 2 10 5 SSW 1015,3 27 60 0,0
08.07.2020 07:00:00 20,5 16,9 16,8 26,3 22,4 8 4 11 6 SW 1014,8 46 44 -
08.07.2020 06:00:00 19,0 16,0 16,7 26,4 22,4 10 5 12 6 SW 1014,6 59 0 -
08.07.2020 05:00:00 19,6 15,9 16,7 26,4 22,4 7 4 11 6 SW 1014,5 60 0 0,0
08.07.2020 04:00:00 20,2 16,0 17,1 26,4 22,4 8 4 12 7 SW 1014,6 60 0 0,0
08.07.2020 03:00:00 20,5 16,1 17,6 26,5 22,4 6 4 10 6 WSW 1014,6 43 0 0,0
08.07.2020 02:00:00 20,8 16,2 17,8 26,5 22,4 6 4 10 6 SW 1014,5 60 0 0,0
08.07.2020 01:00:00 21,3 16,5 18,4 26,5 22,4 8 4 11 6 SW 1014,4 60 0 0,0
08.07.2020 00:00:00 21,8 16,7 18,7 26,5 22,4 8 4 10 5 SW 1014,2 22 0 0,0
07.07.2020 23:00:00 22,4 16,9 19,4 26,4 22,4 7 4 11 6 SW 1013,8 60 0 0,0
07.07.2020 22:00:00 23,8 17,1 20,1 26,3 22,4 7 4 10 5 WSW 1013,4 60 0 0,0
07.07.2020 21:00:00 25,8 17,2 22,8 26,1 22,4 6 4 16 9 W 1012,7 60 24 0,0
07.07.2020 20:00:00 27,5 17,9 27,7 26,0 22,4 11 6 27 14 NNW 1012,4 41 60 0,0
07.07.2020 19:00:00 28,2 17,4 31,5 25,9 22,3 16 9 23 13 N 1012,4 34 60 0,0
07.07.2020 18:00:00 28,8 18,6 34,8 25,8 22,4 14 8 32 17 N 1012,3 27 60 0,0
07.07.2020 17:00:00 28,8 18,3 38,9 25,6 22,3 21 11 33 18 N 1012,5 26 60 0,0
07.07.2020 16:00:00 29,2 19,5 41,7 25,6 22,4 22 12 38 20 N 1012,5 17 60 0,0
07.07.2020 15:00:00 29,2 19,5 43,5 25,5 22,3 22 12 37 20 N 1012,4 18 60 0,0
07.07.2020 14:00:00 29,5 19,5 44,6 25,5 22,3 24 13 35 19 N 1011,9 20 60 0,0
07.07.2020 13:00:00 29,4 19,7 42,1 25,6 22,3 18 10 32 17 N 1011,7 26 60 0,0
07.07.2020 12:00:00 28,5 18,9 40,8 25,6 22,3 19 10 31 17 N 1011,1 20 60 0,0
07.07.2020 11:00:00 29,6 16,8 35,9 25,7 22,3 13 7 25 14 N 1010,4 36 60 0,0
07.07.2020 10:00:00 27,4 20,2 31,9 25,8 22,3 14 8 24 13 N 1009,9 42 60 0,0
07.07.2020 09:00:00 26,6 21,4 23,1 25,8 22,3 10 5 16 9 NNE 1009,4 50 60 0,0
07.07.2020 08:00:00 23,8 19,3 20,1 25,9 22,3 3 2 9 5 SSW 1008,6 41 46 0,0
07.07.2020 07:00:00 21,3 18,5 17,8 26,0 22,3 6 3 11 6 SW 1008,0 42 44 0,0
07.07.2020 06:00:00 19,7 17,7 17,4 26,0 22,3 8 5 11 6 SW 1007,6 47 0 -

tt = temperature
td = dewpoint
tt 5cm = temperature 5cm
tt -20cm = temperature -20cm
tt -100cm = temperature -100cm
ff = wind speed
fx = gusts
dd = wind direction
ppp = reduced air pressure
vv = visibility
sd = sunshine duration
rr = precipitation

Next stations